Location: Seattle
(47.6064°N, 122.3308°W)
Time: 01:45:04
(UTC-08:00)

A-11 Canister half - Pass Details

Date: 05 December 2020
Orbit: 1524 x 1684 km, 47.3° (Epoch: 27 January)

Event Time Altitude Azimuth Distance (km) Brightness Sun altitude
Rises 06:35:38 0° 262° (W) 4,937 - -10.7°
Exits shadow 06:37:31 - 262° (W) 4,350 10.8 -10.4°
Reaches altitude 10° 06:38:48 10° 262° (W) 3,947 10.6 -10.2°
Maximum altitude 06:49:01 88° 176° (S) 1,672 9.2 -8.7°
Drops below altitude 10° 06:59:00 10° 88° (E) 3,867 12.2 -7.1°
Sets 07:02:05 0° 88° (E) 4,833 12.9 -6.7°
